Location: *
(48.8780°N, 19.2358°E)
Time: 02:13:47
(UTC+00:00)

Meteor 2-12 Rocket - Pass Details

Date: 18 October 2019
Orbit: 936 x 956 km, 82.5° (Epoch: 11 November)

Event Time Altitude Azimuth Distance (km) Brightness Sun altitude
Rises 16:10:07 0° 350° (N) 3,646 7.5 -4.3°
Reaches altitude 10° 16:12:38 10° 352° (N) 2,697 6.8 -4.7°
Maximum altitude 16:18:50 78° 79° (E) 983 4.5 -5.7°
Drops below altitude 10° 16:24:59 10° 166° (SSE) 2,680 6.8 -6.7°
Sets 16:27:28 0° 168° (SSE) 3,620 7.4 -7.2°
